Find SCISAT-1

NORAD ID: 27858 Int'l Des: 2003-036 Owner: CSA Country: CA operational
LEOCIRCULAR

Current View

Loading 3D Globe...

About SCISAT-1

SCISAT-1 (NORAD 27858) is a satellite launched Aug 13, 2003 by CSA of CA. It operates in LEO, CIRCULAR orbit with a mass of 150.00 kg.

Upcoming Passes

Passes for default location (London). Set your location on the main map for personalized predictions.

Altitude History

Loading altitude history...

Two-Line Element Set

1 27858U 03036A 26168.09057667 .00000383 00000-0 53543-4 0 9993
2 27858 73.9284 171.5347 0008544 241.2790 118.7528 14.81447462231435
Epoch: Jun 17, 2026 • Age: 12 hours

Current Status

Altitude 632.1 km
Velocity 7.55 km/s
Sub-Earth Point 42.27°N, 142.35°W
Launch Date Aug 13, 2003
Age 22.8 years
Type other

Technical Details

Classification Payload
Mass 150.00 kg
Dry Mass 150.00 kg
Total Mass 150.00 kg
Length 0.60 m
Diameter 1.10 m
Span 1.10 m
Shape Cyl
Manufacturer BRIS
Bus Type MAC-100
Phase Status In Orbit
Owner/State CSA/CA

Most Searched